Zurück zum Katalog

STARLINK-32876

AktivKommunikationVLEO
NORAD 63151·PAYLOAD·🇺🇸 United States

Gestartet Mar 3, 2025 von Cape Canaveral Space Force Station

Loading…

Nächste Überflüge (nächste 24 Stunden)

TLE

AktuellSource: CelesTrak SupGP

Epoche: Sep 14, 2026, 21:38 UTC

1 63151C 25043V   26257.90187500  .00045697  00000+0  16550-2 0  2578
2 63151  43.0044  27.2054 0001962 277.5495 135.3446 15.27558448    16

Verfolge STARLINK-32876 in Echtzeit mit AllMySat

Download on the App Store